UAL154 PHNL-PKMJ

Flight info

Callsign UAL154
Flight time 4h 47m
Altitude 32000
Route OPIHI3 CHOKO R584 MAZZA/N0468F340 10N177E EFAHU
Aircraft B738/M-SDE2E3FGHIRWXY/LB1

Departure

Time 2026-04-15 14:46
Airport Daniel K. Inouye International Airport (PHNL)

Arrival

Time 2026-04-15 19:34
Airport Marshall Islands International Airport (PKMJ)
Time Latitude Longitude Altitude Speed Heading
2026-04-15 14:20 21.33140 -157.92123 16 ft 0 kts
2026-04-15 14:29 21.33134 -157.92123 16 ft 2 kts
2026-04-15 14:29 21.33114 -157.92126 18 ft 3 kts
2026-04-15 14:29 21.33094 -157.92129 15 ft 3 kts
2026-04-15 14:29 21.33074 -157.92131 16 ft 3 kts
2026-04-15 14:30 21.33054 -157.92135 15 ft 3 kts
2026-04-15 14:30 21.33033 -157.92138 14 ft 3 kts
2026-04-15 14:30 21.33013 -157.92141 16 ft 3 kts
2026-04-15 14:30 21.32993 -157.92145 14 ft 3 kts
2026-04-15 14:31 21.32973 -157.92148 15 ft 3 kts 10°
2026-04-15 14:31 21.32953 -157.92152 17 ft 3 kts 10°
2026-04-15 14:31 21.32933 -157.92156 16 ft 3 kts 11°
2026-04-15 14:31 21.32913 -157.92160 17 ft 3 kts 11°
2026-04-15 14:32 21.32893 -157.92164 17 ft 3 kts 11°
2026-04-15 14:32 21.32873 -157.92169 17 ft 3 kts 11°
2026-04-15 14:32 21.32853 -157.92173 19 ft 3 kts 11°
2026-04-15 14:32 21.32834 -157.92177 19 ft 2 kts
2026-04-15 14:33 21.32816 -157.92178 19 ft 3 kts 352°
2026-04-15 14:33 21.32797 -157.92172 20 ft 3 kts 324°
2026-04-15 14:33 21.32784 -157.92157 20 ft 3 kts 298°
2026-04-15 14:33 21.32777 -157.92138 20 ft 3 kts 281°
2026-04-15 14:34 21.32774 -157.92116 19 ft 3 kts 272°
2026-04-15 14:34 21.32774 -157.92107 20 ft 0 kts 271°
2026-04-15 14:36 21.32774 -157.92117 19 ft 6 kts 271°
2026-04-15 14:37 21.32774 -157.92168 18 ft 7 kts 270°
2026-04-15 14:37 21.32773 -157.92218 18 ft 7 kts 262°
2026-04-15 14:37 21.32744 -157.92251 18 ft 7 kts 184°
2026-04-15 14:37 21.32704 -157.92233 19 ft 7 kts 131°
2026-04-15 14:38 21.32695 -157.92185 19 ft 7 kts 97°
2026-04-15 14:38 21.32692 -157.92137 18 ft 6 kts 93°
2026-04-15 14:38 21.32690 -157.92089 18 ft 6 kts 88°
2026-04-15 14:38 21.32691 -157.92043 18 ft 6 kts 88°
2026-04-15 14:39 21.32693 -157.91997 18 ft 6 kts 89°
2026-04-15 14:39 21.32692 -157.91943 17 ft 9 kts 92°
2026-04-15 14:39 21.32668 -157.91880 18 ft 10 kts 135°
2026-04-15 14:39 21.32649 -157.91862 18 ft 0 kts 140°
2026-04-15 14:40 21.32635 -157.91849 18 ft 13 kts 140°
2026-04-15 14:40 21.32531 -157.91776 16 ft 18 kts 147°
2026-04-15 14:40 21.32465 -157.91729 15 ft 6 kts 143°
2026-04-15 14:40 21.32434 -157.91699 15 ft 6 kts 136°
2026-04-15 14:41 21.32403 -157.91670 17 ft 6 kts 143°
2026-04-15 14:41 21.32339 -157.91623 15 ft 18 kts 145°
2026-04-15 14:41 21.32242 -157.91541 13 ft 18 kts 141°
2026-04-15 14:41 21.32144 -157.91466 15 ft 16 kts 155°
2026-04-15 14:42 21.32056 -157.91515 17 ft 15 kts 230°
2026-04-15 14:42 21.31989 -157.91601 16 ft 15 kts 229°
2026-04-15 14:42 21.31924 -157.91681 20 ft 14 kts 229°
2026-04-15 14:42 21.31861 -157.91759 19 ft 13 kts 232°
2026-04-15 14:43 21.31805 -157.91836 16 ft 13 kts 232°
2026-04-15 14:43 21.31752 -157.91913 18 ft 13 kts 234°
2026-04-15 14:43 21.31701 -157.91988 16 ft 12 kts 234°
2026-04-15 14:43 21.31649 -157.92063 16 ft 13 kts 232°
2026-04-15 14:44 21.31554 -157.92193 14 ft 24 kts 232°
2026-04-15 14:44 21.31455 -157.92334 11 ft 23 kts 233°
2026-04-15 14:44 21.31360 -157.92468 13 ft 22 kts 233°
2026-04-15 14:44 21.31299 -157.92556 14 ft 22 kts 237°
2026-04-15 14:45 21.31329 -157.92647 16 ft 14 kts 323°
2026-04-15 14:45 21.31417 -157.92683 17 ft 5 kts 30°
2026-04-15 14:45 21.31437 -157.92654 17 ft 6 kts 54°
2026-04-15 14:45 21.31515 -157.92546 16 ft 54 kts 53°
2026-04-15 14:46 21.31887 -157.92009 16 ft 126 kts 54°
2026-04-15 14:46 21.32549 -157.91076 25 ft 187 kts 52°
2026-04-15 14:46 21.33402 -157.89853 375 ft 217 kts 53°
2026-04-15 14:46 21.34295 -157.88467 1005 ft 228 kts 63°
2026-04-15 14:47 21.34655 -157.86974 2117 ft 208 kts 90°
2026-04-15 14:47 21.34279 -157.85479 2491 ft 225 kts 117°
2026-04-15 14:47 21.33439 -157.84364 2533 ft 244 kts 137°
2026-04-15 14:47 21.32075 -157.83453 3004 ft 249 kts 155°
2026-04-15 14:48 21.30403 -157.82891 3498 ft 249 kts 158°
2026-04-15 14:48 21.29059 -157.81839 4100 ft 241 kts 123°
2026-04-15 14:48 21.28332 -157.80223 4595 ft 242 kts 120°
2026-04-15 14:48 21.27053 -157.78989 4802 ft 261 kts 156°
2026-04-15 14:49 21.25228 -157.78798 5131 ft 274 kts 192°
2026-04-15 14:49 21.23553 -157.79797 5646 ft 281 kts 227°
2026-04-15 14:49 21.22682 -157.81605 6426 ft 280 kts 258°
2026-04-15 14:49 21.22153 -157.83624 6864 ft 288 kts 241°
2026-04-15 14:50 21.21010 -157.85381 7425 ft 283 kts 229°
2026-04-15 14:50 21.19761 -157.86969 8341 ft 276 kts 228°
2026-04-15 14:50 21.18512 -157.88540 9051 ft 277 kts 229°
2026-04-15 14:50 21.17263 -157.90143 9594 ft 283 kts 229°
2026-04-15 14:51 21.16059 -157.91768 10073 ft 280 kts 231°
2026-04-15 14:51 21.14866 -157.93420 10537 ft 281 kts 231°
2026-04-15 14:51 21.13652 -157.95064 11007 ft 283 kts 230°
2026-04-15 14:51 21.12409 -157.96708 11484 ft 284 kts 230°
2026-04-15 14:52 21.11154 -157.98350 11974 ft 285 kts 230°
2026-04-15 14:52 21.09895 -157.99991 12464 ft 285 kts 230°
2026-04-15 14:52 21.08699 -158.01687 12960 ft 285 kts 237°
2026-04-15 14:52 21.07714 -158.03537 13466 ft 285 kts 244°
2026-04-15 14:53 21.06936 -158.05496 13971 ft 288 kts 250°
2026-04-15 14:53 21.06339 -158.07555 14445 ft 292 kts 255°
2026-04-15 14:53 21.05933 -158.09698 14921 ft 295 kts 261°
2026-04-15 14:53 21.05679 -158.11861 15379 ft 298 kts 263°
2026-04-15 14:54 21.05478 -158.14071 15854 ft 299 kts 263°
2026-04-15 14:54 21.05293 -158.16294 16336 ft 300 kts 264°
2026-04-15 14:54 21.05108 -158.18518 16822 ft 300 kts 264°
2026-04-15 14:54 21.04921 -158.20746 17320 ft 300 kts 264°
2026-04-15 14:55 21.04733 -158.22946 17815 ft 299 kts 264°
2026-04-15 14:55 21.04541 -158.25164 18329 ft 300 kts 264°
2026-04-15 14:55 21.04342 -158.27435 18466 ft 314 kts 264°
2026-04-15 14:55 21.04132 -158.29824 18578 ft 328 kts 264°
2026-04-15 14:56 21.03911 -158.32314 18666 ft 342 kts 264°
2026-04-15 14:56 21.03683 -158.34874 18754 ft 356 kts 264°
2026-04-15 14:56 21.03445 -158.37554 18833 ft 368 kts 264°
2026-04-15 14:56 21.03197 -158.40328 18909 ft 380 kts 264°
2026-04-15 14:57 21.02941 -158.43188 18982 ft 391 kts 264°
2026-04-15 14:57 21.02678 -158.46123 19046 ft 401 kts 264°
2026-04-15 14:57 21.02408 -158.49123 19100 ft 410 kts 264°
2026-04-15 14:57 21.02132 -158.52186 19197 ft 416 kts 264°
2026-04-15 14:58 21.01853 -158.55283 19462 ft 418 kts 264°
2026-04-15 14:58 21.01573 -158.58382 19792 ft 418 kts 264°
2026-04-15 14:58 21.01291 -158.61491 20074 ft 419 kts 263°
2026-04-15 14:58 21.01009 -158.64605 20326 ft 421 kts 263°
2026-04-15 14:59 21.00727 -158.67693 20567 ft 423 kts 263°
2026-04-15 14:59 21.00441 -158.70831 20837 ft 424 kts 263°
2026-04-15 14:59 21.00152 -158.73991 21093 ft 426 kts 263°
2026-04-15 14:59 20.99862 -158.77150 21328 ft 427 kts 263°
2026-04-15 15:00 20.99572 -158.80318 21567 ft 429 kts 263°
2026-04-15 15:00 20.99279 -158.83501 21805 ft 430 kts 263°
2026-04-15 15:00 20.98985 -158.86698 22034 ft 432 kts 263°
2026-04-15 15:00 20.98690 -158.89902 22259 ft 433 kts 263°
2026-04-15 15:01 20.98394 -158.93112 22476 ft 434 kts 262°
2026-04-15 15:01 20.98095 -158.96331 22690 ft 436 kts 262°
2026-04-15 15:01 20.97763 -158.99556 22901 ft 436 kts 259°
2026-04-15 15:01 20.97093 -159.02716 23083 ft 436 kts 251°
2026-04-15 15:02 20.96116 -159.05794 23293 ft 437 kts 250°
2026-04-15 15:02 20.95120 -159.08873 23484 ft 438 kts 250°
2026-04-15 15:02 20.94126 -159.11961 23663 ft 440 kts 250°
2026-04-15 15:02 20.93138 -159.15058 23829 ft 440 kts 250°
2026-04-15 15:03 20.92153 -159.18169 23998 ft 441 kts 250°
2026-04-15 15:03 20.91184 -159.21246 24158 ft 442 kts 250°
2026-04-15 15:03 20.90203 -159.24368 24308 ft 443 kts 250°
2026-04-15 15:03 20.89221 -159.27494 24470 ft 444 kts 250°
2026-04-15 15:04 20.88235 -159.30631 24625 ft 444 kts 250°
2026-04-15 15:04 20.87249 -159.33766 24780 ft 445 kts 250°
2026-04-15 15:04 20.86262 -159.36901 24952 ft 445 kts 250°
2026-04-15 15:04 20.85269 -159.40051 25107 ft 446 kts 250°
2026-04-15 15:05 20.84287 -159.43162 25255 ft 446 kts 250°
2026-04-15 15:05 20.83293 -159.46311 25402 ft 447 kts 250°
2026-04-15 15:05 20.82296 -159.49469 25552 ft 448 kts 250°
2026-04-15 15:05 20.81297 -159.52630 25701 ft 448 kts 250°
2026-04-15 15:06 20.79298 -159.58950 25984 ft 449 kts 250°
2026-04-15 15:06 20.78309 -159.62072 26126 ft 450 kts 250°
2026-04-15 15:06 20.77304 -159.65237 26273 ft 450 kts 250°
2026-04-15 15:07 20.76299 -159.68405 26477 ft 449 kts 250°
2026-04-15 15:07 20.75298 -159.71553 26714 ft 447 kts 249°
2026-04-15 15:07 20.74302 -159.74690 26949 ft 446 kts 249°
2026-04-15 15:07 20.73304 -159.77827 27187 ft 444 kts 249°
2026-04-15 15:08 20.72312 -159.80945 27417 ft 443 kts 249°
2026-04-15 15:08 20.71323 -159.84052 27659 ft 442 kts 249°
2026-04-15 15:08 20.70334 -159.87157 27906 ft 440 kts 249°
2026-04-15 15:08 20.69349 -159.90246 28152 ft 439 kts 249°
2026-04-15 15:09 20.68363 -159.93336 28395 ft 438 kts 249°
2026-04-15 15:09 20.67381 -159.96412 28658 ft 436 kts 249°
2026-04-15 15:09 20.66403 -159.99474 28914 ft 435 kts 249°
2026-04-15 15:09 20.65440 -160.02488 29170 ft 434 kts 249°
2026-04-15 15:10 20.64563 -160.05228 29396 ft 433 kts 249°
2026-04-15 15:10 20.63587 -160.08278 29680 ft 431 kts 249°
2026-04-15 15:10 20.62618 -160.11302 29952 ft 429 kts 249°
2026-04-15 15:10 20.61652 -160.14316 30213 ft 428 kts 248°
2026-04-15 15:11 20.60691 -160.17315 30458 ft 426 kts 248°
2026-04-15 15:11 20.59732 -160.20301 30705 ft 424 kts 248°
2026-04-15 15:11 20.58776 -160.23279 30955 ft 423 kts 248°
2026-04-15 15:11 20.57836 -160.26203 31199 ft 421 kts 248°
2026-04-15 15:12 20.56885 -160.29161 31435 ft 419 kts 248°
2026-04-15 15:12 20.55939 -160.32102 31658 ft 418 kts 248°
2026-04-15 15:12 20.55081 -160.34768 31876 ft 417 kts 248°
2026-04-15 15:12 20.54140 -160.37688 32061 ft 415 kts 248°
2026-04-15 15:13 20.52280 -160.43454 32057 ft 417 kts 248°
2026-04-15 15:13 20.50396 -160.49288 32058 ft 415 kts 248°
2026-04-15 15:14 20.48517 -160.55101 32057 ft 414 kts 248°
2026-04-15 15:14 20.46692 -160.60739 32057 ft 414 kts 248°
2026-04-15 15:15 20.44826 -160.66496 32057 ft 413 kts 248°
2026-04-15 15:15 20.42947 -160.72287 32056 ft 413 kts 248°
2026-04-15 15:16 20.41062 -160.78092 32058 ft 414 kts 248°
2026-04-15 15:16 20.39159 -160.83897 32056 ft 414 kts 248°
2026-04-15 15:17 20.37200 -160.89678 32054 ft 414 kts 246°
2026-04-15 15:17 20.35028 -160.95306 32060 ft 414 kts 245°
2026-04-15 15:18 20.32771 -161.01007 32058 ft 415 kts 245°
2026-04-15 15:18 20.30536 -161.06684 32056 ft 415 kts 245°
2026-04-15 15:19 20.28309 -161.12369 32052 ft 416 kts 245°
2026-04-15 15:19 20.26097 -161.18026 32051 ft 416 kts 245°
2026-04-15 15:20 20.23875 -161.23702 32051 ft 415 kts 245°
2026-04-15 15:20 20.21649 -161.29383 32050 ft 415 kts 245°
2026-04-15 15:21 20.19422 -161.35058 32049 ft 415 kts 245°
2026-04-15 15:21 20.17229 -161.40643 32051 ft 415 kts 245°
2026-04-15 15:22 20.15001 -161.46307 32051 ft 415 kts 245°
2026-04-15 15:22 20.12787 -161.51932 32051 ft 415 kts 245°
2026-04-15 15:23 20.10560 -161.57583 32053 ft 414 kts 245°
2026-04-15 15:23 20.08327 -161.63243 32054 ft 414 kts 245°
2026-04-15 15:24 20.06096 -161.68893 32053 ft 414 kts 245°
2026-04-15 15:24 20.03864 -161.74538 32047 ft 414 kts 245°
2026-04-15 15:25 20.01629 -161.80185 32047 ft 414 kts 245°
2026-04-15 15:25 19.99394 -161.85825 32051 ft 414 kts 245°
2026-04-15 15:26 19.97156 -161.91467 32050 ft 414 kts 245°
2026-04-15 15:26 19.94933 -161.97066 32052 ft 413 kts 244°
2026-04-15 15:27 19.92694 -162.02700 32053 ft 413 kts 244°
2026-04-15 15:27 19.90455 -162.08325 32051 ft 413 kts 244°
2026-04-15 15:28 19.88214 -162.13951 32051 ft 413 kts 244°
2026-04-15 15:28 19.85972 -162.19574 32052 ft 413 kts 244°
2026-04-15 15:29 19.83741 -162.25161 32051 ft 413 kts 244°
2026-04-15 15:29 19.81497 -162.30778 32053 ft 413 kts 244°
2026-04-15 15:30 19.79251 -162.36393 32048 ft 413 kts 244°
2026-04-15 15:30 19.77004 -162.42004 32048 ft 413 kts 244°
2026-04-15 15:31 19.74755 -162.47614 32047 ft 413 kts 244°
2026-04-15 15:31 19.72506 -162.53218 32045 ft 413 kts 244°
2026-04-15 15:32 19.70255 -162.58823 32045 ft 413 kts 244°
2026-04-15 15:32 19.68016 -162.64393 32046 ft 413 kts 244°
2026-04-15 15:33 19.65760 -162.69997 32048 ft 413 kts 244°
2026-04-15 15:33 19.63548 -162.75619 32046 ft 413 kts 245°
2026-04-15 15:34 19.61733 -162.80298 32046 ft 413 kts 245°
2026-04-15 15:34 19.59547 -162.85927 32041 ft 413 kts 245°
2026-04-15 15:35 19.57473 -162.91252 32047 ft 413 kts 245°
2026-04-15 15:35 19.55276 -162.96878 32050 ft 413 kts 245°
2026-04-15 15:36 19.53073 -163.02510 32051 ft 413 kts 245°
2026-04-15 15:36 19.50871 -163.08133 32048 ft 413 kts 245°
2026-04-15 15:37 19.48681 -163.13719 32044 ft 413 kts 245°
2026-04-15 15:37 19.46468 -163.19359 32048 ft 413 kts 245°
2026-04-15 15:38 19.44346 -163.24763 32039 ft 413 kts 245°
2026-04-15 15:38 19.42134 -163.30388 32040 ft 413 kts 245°
2026-04-15 15:39 19.39921 -163.36012 32042 ft 414 kts 245°
2026-04-15 15:39 19.37721 -163.41596 32044 ft 414 kts 245°
2026-04-15 15:40 19.35503 -163.47218 32049 ft 413 kts 245°
2026-04-15 15:40 19.33284 -163.52839 32042 ft 413 kts 245°
2026-04-15 15:41 19.31065 -163.58454 32042 ft 413 kts 245°
2026-04-15 15:41 19.28841 -163.64073 32043 ft 413 kts 245°
2026-04-15 15:42 19.26615 -163.69693 32042 ft 413 kts 245°
2026-04-15 15:42 19.24389 -163.75307 32042 ft 413 kts 245°
2026-04-15 15:43 19.22162 -163.80919 32042 ft 414 kts 245°
2026-04-15 15:43 19.19947 -163.86492 32038 ft 414 kts 245°
2026-04-15 15:44 19.17716 -163.92102 32040 ft 414 kts 245°
2026-04-15 15:44 19.15480 -163.97718 32042 ft 414 kts 245°
2026-04-15 15:45 19.13244 -164.03328 32038 ft 414 kts 245°
2026-04-15 15:45 19.11009 -164.08931 32036 ft 414 kts 245°
2026-04-15 15:46 19.08769 -164.14539 32044 ft 414 kts 245°
2026-04-15 15:46 19.06528 -164.20146 32045 ft 413 kts 245°
2026-04-15 15:47 19.04301 -164.25710 32037 ft 413 kts 245°
2026-04-15 15:47 19.02059 -164.31307 32042 ft 413 kts 245°
2026-04-15 15:48 18.99813 -164.36907 32041 ft 413 kts 245°
2026-04-15 15:48 18.97569 -164.42498 32034 ft 413 kts 245°
2026-04-15 15:49 18.95333 -164.48061 32031 ft 413 kts 245°
2026-04-15 15:49 18.93086 -164.53649 32035 ft 413 kts 245°
2026-04-15 15:50 18.90837 -164.59233 32034 ft 413 kts 245°
2026-04-15 15:50 18.88584 -164.64822 32038 ft 413 kts 245°
2026-04-15 15:51 18.86333 -164.70402 32033 ft 413 kts 245°
2026-04-15 15:51 18.84090 -164.75955 32039 ft 413 kts 245°
2026-04-15 15:52 18.81838 -164.81526 32034 ft 413 kts 245°
2026-04-15 15:52 18.79595 -164.87071 32037 ft 413 kts 245°
2026-04-15 15:53 18.77338 -164.92641 32036 ft 413 kts 245°
2026-04-15 15:53 18.75078 -164.98216 32035 ft 413 kts 245°
2026-04-15 15:54 18.72816 -165.03789 32031 ft 413 kts 245°
2026-04-15 15:54 18.70552 -165.09360 32034 ft 413 kts 245°
2026-04-15 15:55 18.68290 -165.14922 32032 ft 413 kts 245°
2026-04-15 15:55 18.66038 -165.20455 32033 ft 413 kts 245°
2026-04-15 15:56 18.63772 -165.26014 32032 ft 413 kts 245°
2026-04-15 15:56 18.61504 -165.31575 32037 ft 413 kts 245°
2026-04-15 15:57 18.59235 -165.37133 32030 ft 413 kts 245°
2026-04-15 15:57 18.56962 -165.42694 32029 ft 412 kts 245°
2026-04-15 15:58 18.54688 -165.48252 32030 ft 412 kts 245°
2026-04-15 15:58 18.52424 -165.53780 32029 ft 412 kts 245°
2026-04-15 15:59 18.50149 -165.59330 32029 ft 412 kts 245°
2026-04-15 15:59 18.47872 -165.64881 32031 ft 412 kts 245°
2026-04-15 16:00 18.45594 -165.70426 32027 ft 412 kts 245°
2026-04-15 16:00 18.43317 -165.75967 32031 ft 412 kts 245°
2026-04-15 16:01 18.41048 -165.81479 32027 ft 413 kts 245°
2026-04-15 16:01 18.38765 -165.87023 32026 ft 413 kts 245°
2026-04-15 16:02 18.36474 -165.92578 32028 ft 413 kts 245°
2026-04-15 16:02 18.34182 -165.98132 32025 ft 414 kts 245°
2026-04-15 16:03 18.31888 -166.03685 32023 ft 414 kts 245°
2026-04-15 16:03 18.29593 -166.09237 32028 ft 414 kts 245°
2026-04-15 16:04 18.27294 -166.14790 32026 ft 414 kts 245°
2026-04-15 16:04 18.24988 -166.20357 32027 ft 414 kts 245°
2026-04-15 16:05 18.22682 -166.25918 32021 ft 415 kts 245°
2026-04-15 16:05 18.20374 -166.31477 32022 ft 415 kts 245°
2026-04-15 16:06 18.18066 -166.37034 32020 ft 415 kts 245°
2026-04-15 16:06 18.15769 -166.42556 32026 ft 415 kts 245°
2026-04-15 16:07 18.13455 -166.48115 32021 ft 415 kts 245°
2026-04-15 16:08 18.09978 -166.56458 32019 ft 414 kts 245°
2026-04-15 16:08 18.07664 -166.62002 32018 ft 414 kts 245°
2026-04-15 16:09 18.05366 -166.67504 32021 ft 414 kts 245°
2026-04-15 16:09 18.03051 -166.73042 32019 ft 414 kts 245°
2026-04-15 16:10 18.00737 -166.78573 32021 ft 414 kts 245°
2026-04-15 16:10 17.98418 -166.84108 32019 ft 414 kts 245°
2026-04-15 16:11 17.96097 -166.89644 32018 ft 414 kts 245°
2026-04-15 16:11 17.93770 -166.95190 32018 ft 414 kts 245°
2026-04-15 16:12 17.91457 -167.00697 32021 ft 415 kts 245°
2026-04-15 16:12 17.89119 -167.06258 32016 ft 415 kts 245°
2026-04-15 16:13 17.86795 -167.11781 32019 ft 415 kts 245°
2026-04-15 16:13 17.84454 -167.17339 32018 ft 416 kts 245°
2026-04-15 16:14 17.82112 -167.22893 32018 ft 416 kts 245°
2026-04-15 16:14 17.79768 -167.28448 32017 ft 416 kts 245°
2026-04-15 16:15 17.77420 -167.34006 32020 ft 417 kts 245°
2026-04-15 16:15 17.75085 -167.39529 32020 ft 417 kts 245°
2026-04-15 16:16 17.72729 -167.45097 32019 ft 417 kts 244°
2026-04-15 16:16 17.70371 -167.50665 32020 ft 417 kts 244°
2026-04-15 16:17 17.68007 -167.56239 32021 ft 418 kts 244°
2026-04-15 16:17 17.65644 -167.61809 32023 ft 418 kts 244°
2026-04-15 16:18 17.63275 -167.67386 32020 ft 418 kts 244°
2026-04-15 16:18 17.60920 -167.72925 32017 ft 418 kts 244°
2026-04-15 16:19 17.58546 -167.78505 32018 ft 418 kts 244°
2026-04-15 16:19 17.56170 -167.84082 32018 ft 419 kts 244°
2026-04-15 16:20 17.53796 -167.89652 32020 ft 419 kts 244°
2026-04-15 16:20 17.51526 -167.94971 32018 ft 419 kts 244°
2026-04-15 16:21 17.49161 -168.00509 32017 ft 419 kts 244°
2026-04-15 16:21 17.46825 -168.05974 32014 ft 419 kts 244°
2026-04-15 16:22 17.44440 -168.11548 32014 ft 419 kts 244°
2026-04-15 16:22 17.42051 -168.17128 32013 ft 420 kts 244°
2026-04-15 16:23 17.39660 -168.22706 32013 ft 420 kts 244°
2026-04-15 16:23 17.37265 -168.28287 32014 ft 420 kts 244°
2026-04-15 16:24 17.35272 -168.32928 32014 ft 420 kts 244°
2026-04-15 16:24 17.32874 -168.38508 32014 ft 421 kts 244°
2026-04-15 16:25 17.30473 -168.44092 32013 ft 421 kts 244°
2026-04-15 16:25 17.28067 -168.49680 32009 ft 421 kts 244°
2026-04-15 16:26 17.25654 -168.55280 32012 ft 422 kts 244°
2026-04-15 16:26 17.23251 -168.60852 32010 ft 422 kts 244°
2026-04-15 16:27 17.20835 -168.66449 32013 ft 422 kts 244°
2026-04-15 16:27 17.18415 -168.72046 32017 ft 422 kts 245°
2026-04-15 16:28 17.15996 -168.77641 32004 ft 422 kts 245°
2026-04-15 16:28 17.13577 -168.83230 32008 ft 421 kts 245°
2026-04-15 16:29 17.11162 -168.88805 32008 ft 421 kts 245°
2026-04-15 16:29 17.08747 -168.94375 32005 ft 421 kts 245°
2026-04-15 16:30 17.06331 -168.99943 32007 ft 420 kts 245°
2026-04-15 16:30 17.03907 -169.05522 32007 ft 421 kts 245°
2026-04-15 16:31 17.01502 -169.11053 32006 ft 421 kts 245°
2026-04-15 16:31 16.99221 -169.16295 32006 ft 421 kts 245°
2026-04-15 16:32 16.96792 -169.21872 32003 ft 421 kts 245°
2026-04-15 16:32 16.94378 -169.27410 32001 ft 421 kts 245°
2026-04-15 16:33 16.91943 -169.32992 32002 ft 422 kts 245°
2026-04-15 16:33 16.89508 -169.38568 32002 ft 422 kts 245°
2026-04-15 16:34 16.87072 -169.44142 32002 ft 422 kts 245°
2026-04-15 16:34 16.84632 -169.49720 32002 ft 422 kts 245°
2026-04-15 16:35 16.82206 -169.55262 32000 ft 422 kts 245°
2026-04-15 16:35 16.79758 -169.60848 32001 ft 422 kts 245°
2026-04-15 16:36 16.77310 -169.66429 32001 ft 423 kts 245°
2026-04-15 16:36 16.74994 -169.71705 32003 ft 423 kts 245°
2026-04-15 16:37 16.72537 -169.77299 32002 ft 423 kts 245°
2026-04-15 16:37 16.70084 -169.82878 32002 ft 423 kts 245°
2026-04-15 16:38 16.67642 -169.88426 32002 ft 423 kts 245°
2026-04-15 16:38 16.65581 -169.93106 32003 ft 424 kts 245°
2026-04-15 16:39 16.63412 -169.98027 31998 ft 424 kts 245°
2026-04-15 16:39 16.60947 -170.03616 32000 ft 424 kts 245°
2026-04-15 16:40 16.58479 -170.09204 32000 ft 424 kts 245°
2026-04-15 16:40 16.56011 -170.14791 32001 ft 424 kts 245°
2026-04-15 16:41 16.53553 -170.20348 32001 ft 425 kts 245°
2026-04-15 16:41 16.51078 -170.25939 32001 ft 425 kts 245°
2026-04-15 16:42 16.48595 -170.31544 32000 ft 425 kts 245°
2026-04-15 16:42 16.46112 -170.37145 31996 ft 425 kts 245°
2026-04-15 16:43 16.44046 -170.41799 31997 ft 426 kts 245°
2026-04-15 16:43 16.41897 -170.46641 31997 ft 426 kts 245°
2026-04-15 16:44 16.39421 -170.52211 31997 ft 426 kts 245°
2026-04-15 16:44 16.36928 -170.57817 32000 ft 426 kts 245°
2026-04-15 16:45 16.34434 -170.63419 32000 ft 427 kts 245°
2026-04-15 16:45 16.31934 -170.69029 32001 ft 427 kts 245°
2026-04-15 16:46 16.29432 -170.74641 32001 ft 427 kts 245°
2026-04-15 16:46 16.27195 -170.79653 31996 ft 428 kts 245°
2026-04-15 16:47 16.24702 -170.85234 31998 ft 428 kts 245°
2026-04-15 16:47 16.22187 -170.90860 31995 ft 429 kts 245°
2026-04-15 16:48 16.19670 -170.96486 31997 ft 429 kts 245°
2026-04-15 16:48 16.17150 -171.02114 31997 ft 429 kts 245°
2026-04-15 16:49 16.14625 -171.07748 31997 ft 429 kts 245°
2026-04-15 16:49 16.12114 -171.13349 31993 ft 430 kts 245°
2026-04-15 16:50 16.09583 -171.18986 31996 ft 430 kts 245°
2026-04-15 16:50 16.07126 -171.24456 31994 ft 430 kts 245°
2026-04-15 16:51 16.04687 -171.29881 31994 ft 431 kts 245°
2026-04-15 16:51 16.02147 -171.35526 31994 ft 431 kts 245°
2026-04-15 16:52 15.99617 -171.41143 31994 ft 431 kts 245°
2026-04-15 16:52 15.97073 -171.46790 31994 ft 432 kts 245°
2026-04-15 16:53 15.94521 -171.52450 31993 ft 432 kts 245°
2026-04-15 16:53 15.91952 -171.58092 31993 ft 432 kts 244°
2026-04-15 16:54 15.89309 -171.63672 31995 ft 432 kts 244°
2026-04-15 16:54 15.86635 -171.69273 31991 ft 433 kts 244°
2026-04-15 16:55 15.83966 -171.74883 31991 ft 433 kts 244°
2026-04-15 16:55 15.81460 -171.80158 31990 ft 434 kts 244°
2026-04-15 16:56 15.78793 -171.85776 31992 ft 434 kts 244°
2026-04-15 16:56 15.76121 -171.91400 31994 ft 434 kts 244°
2026-04-15 16:57 15.73516 -171.96880 31996 ft 435 kts 244°
2026-04-15 16:57 15.70838 -172.02507 31990 ft 435 kts 244°
2026-04-15 16:58 15.68649 -172.07103 31992 ft 435 kts 244°
2026-04-15 16:58 15.65937 -172.12794 31990 ft 436 kts 244°
2026-04-15 16:59 15.63248 -172.18432 31993 ft 436 kts 244°
2026-04-15 16:59 15.60573 -172.24038 31992 ft 436 kts 244°
2026-04-15 17:00 15.57872 -172.29690 31992 ft 437 kts 244°
2026-04-15 17:00 15.55174 -172.35335 31992 ft 437 kts 244°
2026-04-15 17:01 15.52468 -172.40989 31992 ft 437 kts 244°
2026-04-15 17:01 15.49765 -172.46635 31991 ft 437 kts 244°
2026-04-15 17:02 15.47057 -172.52286 31989 ft 438 kts 244°
2026-04-15 17:02 15.44359 -172.57910 31988 ft 438 kts 244°
2026-04-15 17:03 15.41894 -172.63048 31989 ft 438 kts 244°
2026-04-15 17:03 15.39176 -172.68706 31989 ft 439 kts 244°
2026-04-15 17:04 15.36928 -172.73382 31989 ft 439 kts 244°
2026-04-15 17:04 15.34173 -172.79110 31989 ft 439 kts 244°
2026-04-15 17:05 15.31444 -172.84780 31992 ft 440 kts 244°
2026-04-15 17:05 15.28728 -172.90416 31992 ft 440 kts 244°
2026-04-15 17:06 15.26896 -172.94216 31989 ft 440 kts 244°
2026-04-15 17:06 15.23935 -173.00354 31989 ft 441 kts 244°
2026-04-15 17:07 15.21193 -173.06035 31988 ft 441 kts 244°
2026-04-15 17:07 15.18449 -173.11713 31992 ft 441 kts 244°
2026-04-15 17:08 15.15703 -173.17391 31993 ft 441 kts 244°
2026-04-15 17:08 15.12970 -173.23038 31993 ft 441 kts 244°
2026-04-15 17:09 15.10214 -173.28729 31990 ft 442 kts 244°
2026-04-15 17:09 15.07454 -173.34424 31991 ft 442 kts 244°
2026-04-15 17:10 15.04711 -173.40079 31993 ft 442 kts 244°
2026-04-15 17:10 15.01950 -173.45765 31991 ft 442 kts 244°
2026-04-15 17:11 14.99649 -173.50503 31992 ft 442 kts 244°
2026-04-15 17:11 14.96880 -173.56199 31993 ft 443 kts 244°
2026-04-15 17:12 14.92724 -173.64739 31993 ft 443 kts 244°
2026-04-15 17:12 14.89967 -173.70400 31990 ft 443 kts 244°
2026-04-15 17:13 14.87190 -173.76098 31992 ft 443 kts 244°
2026-04-15 17:13 14.84409 -173.81798 31995 ft 444 kts 244°
2026-04-15 17:14 14.81628 -173.87496 31991 ft 444 kts 244°
2026-04-15 17:14 14.78845 -173.93193 31991 ft 444 kts 244°
2026-04-15 17:15 14.76059 -173.98891 31991 ft 444 kts 244°
2026-04-15 17:15 14.73461 -174.04200 31992 ft 445 kts 244°
2026-04-15 17:16 14.70689 -174.09862 31990 ft 445 kts 244°
2026-04-15 17:16 14.67893 -174.15568 31990 ft 445 kts 244°
2026-04-15 17:17 14.65096 -174.21273 31990 ft 445 kts 244°
2026-04-15 17:17 14.62294 -174.26981 31989 ft 446 kts 244°
2026-04-15 17:18 14.59488 -174.32696 31989 ft 446 kts 244°
2026-04-15 17:18 14.56681 -174.38408 31992 ft 446 kts 244°
2026-04-15 17:19 14.53868 -174.44126 31988 ft 446 kts 244°
2026-04-15 17:19 14.51056 -174.49839 31998 ft 447 kts 244°
2026-04-15 17:20 14.48368 -174.55298 31986 ft 447 kts 244°
2026-04-15 17:20 14.45567 -174.60979 31985 ft 447 kts 244°
2026-04-15 17:21 14.42749 -174.66692 31994 ft 447 kts 244°
2026-04-15 17:21 14.40154 -174.71950 31998 ft 447 kts 244°
2026-04-15 17:22 14.37328 -174.77670 31990 ft 447 kts 244°
2026-04-15 17:22 14.34499 -174.83393 31984 ft 447 kts 244°
2026-04-15 17:23 14.31669 -174.89112 31994 ft 447 kts 244°
2026-04-15 17:23 14.29231 -174.94037 31986 ft 448 kts 244°
2026-04-15 17:24 14.27105 -174.98329 31990 ft 448 kts 244°
2026-04-15 17:24 14.25121 -175.02332 31993 ft 448 kts 244°
2026-04-15 17:25 14.22283 -175.08056 31986 ft 448 kts 244°
2026-04-15 17:25 14.19445 -175.13774 31991 ft 448 kts 244°
2026-04-15 17:26 14.16602 -175.19499 31994 ft 448 kts 244°
2026-04-15 17:26 14.13759 -175.25218 31986 ft 448 kts 244°
2026-04-15 17:27 14.10917 -175.30932 31983 ft 448 kts 244°
2026-04-15 17:27 14.08073 -175.36648 31985 ft 448 kts 244°
2026-04-15 17:28 14.05228 -175.42359 31989 ft 448 kts 244°
2026-04-15 17:28 14.02392 -175.48048 31989 ft 448 kts 244°
2026-04-15 17:29 13.99545 -175.53756 31985 ft 448 kts 244°
2026-04-15 17:29 13.96687 -175.59481 31991 ft 448 kts 244°
2026-04-15 17:30 13.93834 -175.65193 31985 ft 448 kts 244°
2026-04-15 17:30 13.90997 -175.70868 31989 ft 448 kts 244°
2026-04-15 17:31 13.88138 -175.76583 31989 ft 448 kts 244°
2026-04-15 17:31 13.85281 -175.82291 31988 ft 448 kts 244°
2026-04-15 17:32 13.82422 -175.87999 31989 ft 448 kts 244°
2026-04-15 17:32 13.79580 -175.93667 31992 ft 448 kts 244°
2026-04-15 17:33 13.76715 -175.99378 31990 ft 448 kts 244°
2026-04-15 17:33 13.73854 -176.05078 31987 ft 448 kts 244°
2026-04-15 17:34 13.70990 -176.10780 31990 ft 448 kts 244°
2026-04-15 17:34 13.68124 -176.16481 31986 ft 449 kts 244°
2026-04-15 17:35 13.65256 -176.22181 31987 ft 449 kts 244°
2026-04-15 17:35 13.62388 -176.27878 31987 ft 449 kts 244°
2026-04-15 17:36 13.59518 -176.33577 31995 ft 449 kts 244°
2026-04-15 17:36 13.56661 -176.39243 31985 ft 449 kts 244°
2026-04-15 17:37 13.53788 -176.44938 31984 ft 449 kts 244°
2026-04-15 17:37 13.50908 -176.50644 31986 ft 449 kts 244°
2026-04-15 17:38 13.48029 -176.56343 31986 ft 449 kts 244°
2026-04-15 17:38 13.45148 -176.62043 31987 ft 449 kts 244°
2026-04-15 17:39 13.42267 -176.67738 31982 ft 449 kts 244°
2026-04-15 17:39 13.39382 -176.73438 31982 ft 449 kts 244°
2026-04-15 17:40 13.36515 -176.79098 31985 ft 450 kts 244°
2026-04-15 17:40 13.33627 -176.84795 31984 ft 450 kts 244°
2026-04-15 17:41 13.30738 -176.90492 31983 ft 450 kts 244°
2026-04-15 17:41 13.27845 -176.96192 31987 ft 450 kts 244°
2026-04-15 17:42 13.24947 -177.01896 31986 ft 450 kts 244°
2026-04-15 17:42 13.22049 -177.07598 31986 ft 450 kts 244°
2026-04-15 17:43 13.19148 -177.13303 31983 ft 451 kts 244°
2026-04-15 17:43 13.16246 -177.19005 31982 ft 451 kts 244°
2026-04-15 17:44 13.13338 -177.24715 31983 ft 451 kts 244°
2026-04-15 17:44 13.10449 -177.30385 31983 ft 451 kts 244°
2026-04-15 17:45 13.07542 -177.36085 31983 ft 451 kts 244°
2026-04-15 17:45 13.04632 -177.41786 31984 ft 451 kts 244°
2026-04-15 17:46 13.01719 -177.47491 31984 ft 451 kts 244°
2026-04-15 17:46 12.98803 -177.53199 31986 ft 452 kts 244°
2026-04-15 17:47 12.95885 -177.58905 31981 ft 452 kts 244°
2026-04-15 17:47 12.92962 -177.64619 31980 ft 452 kts 244°
2026-04-15 17:48 12.90056 -177.70295 31979 ft 452 kts 244°
2026-04-15 17:48 12.87132 -177.76002 31985 ft 452 kts 244°
2026-04-15 17:49 12.84205 -177.81713 31983 ft 453 kts 244°
2026-04-15 17:49 12.81268 -177.87437 31983 ft 453 kts 244°
2026-04-15 17:50 12.78336 -177.93149 31982 ft 453 kts 244°
2026-04-15 17:50 12.75417 -177.98831 31983 ft 453 kts 244°
2026-04-15 17:51 12.72478 -178.04549 31982 ft 454 kts 244°
2026-04-15 17:51 12.69536 -178.10270 31983 ft 454 kts 244°
2026-04-15 17:52 12.66591 -178.15991 31982 ft 454 kts 244°
2026-04-15 17:52 12.64090 -178.20849 31983 ft 454 kts 244°
2026-04-15 17:53 12.61141 -178.26571 31982 ft 455 kts 244°
2026-04-15 17:53 12.58187 -178.32302 31980 ft 455 kts 244°
2026-04-15 17:54 12.55231 -178.38031 31979 ft 455 kts 244°
2026-04-15 17:54 12.52268 -178.43769 31975 ft 456 kts 244°
2026-04-15 17:55 12.49327 -178.49462 31982 ft 456 kts 244°
2026-04-15 17:55 12.46346 -178.55229 31979 ft 456 kts 244°
2026-04-15 17:56 12.43391 -178.60941 31983 ft 456 kts 244°
2026-04-15 17:56 12.40419 -178.66684 31982 ft 457 kts 244°
2026-04-15 17:57 12.37444 -178.72427 31979 ft 457 kts 244°
2026-04-15 17:57 12.34462 -178.78183 31980 ft 457 kts 244°
2026-04-15 17:58 12.31984 -178.82961 31976 ft 457 kts 244°
2026-04-15 17:58 12.29003 -178.88706 31979 ft 458 kts 244°
2026-04-15 17:59 12.26013 -178.94466 31983 ft 458 kts 244°
2026-04-15 17:59 12.23039 -179.00190 31983 ft 458 kts 244°
2026-04-15 18:00 12.20049 -179.05944 31980 ft 458 kts 244°
2026-04-15 18:00 12.17054 -179.11701 31980 ft 458 kts 244°
2026-04-15 18:01 12.14056 -179.17461 31980 ft 459 kts 244°
2026-04-15 18:01 12.11060 -179.23214 31979 ft 459 kts 244°
2026-04-15 18:02 12.08240 -179.28626 31980 ft 459 kts 244°
2026-04-15 18:02 12.05255 -179.34350 31976 ft 459 kts 244°
2026-04-15 18:03 12.02455 -179.39718 31980 ft 460 kts 244°
2026-04-15 18:03 11.99444 -179.45486 31977 ft 460 kts 244°
2026-04-15 18:04 11.96427 -179.51263 31979 ft 460 kts 244°
2026-04-15 18:04 11.93406 -179.57042 31980 ft 461 kts 244°
2026-04-15 18:05 11.90388 -179.62813 31981 ft 461 kts 244°
2026-04-15 18:05 11.87496 -179.68340 31983 ft 461 kts 244°
2026-04-15 18:06 11.84492 -179.74077 31977 ft 461 kts 244°
2026-04-15 18:06 11.81461 -179.79862 31972 ft 462 kts 244°
2026-04-15 18:07 11.78430 -179.85645 31975 ft 462 kts 244°
2026-04-15 18:07 11.75397 -179.91428 31976 ft 462 kts 244°
2026-04-15 18:08 11.72358 -179.97220 31972 ft 462 kts 244°
2026-04-15 18:08 11.69281 179.97008 31972 ft 463 kts 243°
2026-04-15 18:09 11.66070 179.91311 31974 ft 463 kts 242°
2026-04-15 18:09 11.62855 179.85657 31976 ft 464 kts 243°
2026-04-15 18:10 11.59634 179.79962 31973 ft 464 kts 243°
2026-04-15 18:10 11.56415 179.74248 31975 ft 465 kts 243°
2026-04-15 18:11 11.53190 179.68518 31976 ft 466 kts 243°
2026-04-15 18:11 11.49959 179.62781 31970 ft 467 kts 243°
2026-04-15 18:12 11.46723 179.57039 31971 ft 467 kts 243°
2026-04-15 18:12 11.43482 179.51292 31966 ft 467 kts 243°
2026-04-15 18:13 11.40236 179.45542 31970 ft 467 kts 243°
2026-04-15 18:14 11.35375 179.36934 31973 ft 467 kts 243°
2026-04-15 18:14 11.32336 179.31556 31969 ft 467 kts 243°
2026-04-15 18:15 11.29219 179.26043 31973 ft 468 kts 243°
2026-04-15 18:15 11.25969 179.20299 31972 ft 468 kts 243°
2026-04-15 18:16 11.22715 179.14549 31967 ft 468 kts 243°
2026-04-15 18:16 11.19462 179.08806 31971 ft 468 kts 243°
2026-04-15 18:17 11.16201 179.03052 31970 ft 469 kts 243°
2026-04-15 18:17 11.12963 178.97342 31968 ft 469 kts 243°
2026-04-15 18:18 11.09702 178.91594 31968 ft 469 kts 243°
2026-04-15 18:18 11.06433 178.85834 31967 ft 470 kts 243°
2026-04-15 18:19 11.03161 178.80073 31968 ft 470 kts 243°
2026-04-15 18:19 10.99997 178.74505 31970 ft 470 kts 243°
2026-04-15 18:20 10.96786 178.68858 31968 ft 470 kts 243°
2026-04-15 18:20 10.93506 178.63093 31969 ft 471 kts 243°
2026-04-15 18:21 10.90217 178.57314 31970 ft 471 kts 243°
2026-04-15 18:21 10.86926 178.51535 31965 ft 471 kts 243°
2026-04-15 18:22 10.83657 178.45799 31964 ft 472 kts 243°
2026-04-15 18:22 10.80365 178.40024 31964 ft 472 kts 243°
2026-04-15 18:23 10.77067 178.34243 31967 ft 472 kts 243°
2026-04-15 18:23 10.73770 178.28467 31964 ft 472 kts 243°
2026-04-15 18:24 10.70466 178.22680 31964 ft 473 kts 243°
2026-04-15 18:24 10.67157 178.16889 31963 ft 473 kts 243°
2026-04-15 18:25 10.63873 178.11146 31964 ft 473 kts 243°
2026-04-15 18:25 10.60690 178.05580 31963 ft 473 kts 243°
2026-04-15 18:26 10.57380 177.99796 31964 ft 473 kts 243°
2026-04-15 18:26 10.54067 177.94011 31964 ft 474 kts 243°
2026-04-15 18:27 10.50752 177.88224 31962 ft 474 kts 243°
2026-04-15 18:27 10.47433 177.82433 31960 ft 474 kts 243°
2026-04-15 18:28 10.44109 177.76637 31961 ft 474 kts 243°
2026-04-15 18:28 10.40977 177.71178 31964 ft 474 kts 243°
2026-04-15 18:29 10.37648 177.65380 31963 ft 475 kts 243°
2026-04-15 18:29 10.34321 177.59588 31960 ft 475 kts 243°
2026-04-15 18:30 10.30993 177.53796 31962 ft 475 kts 243°
2026-04-15 18:30 10.27662 177.48004 31961 ft 475 kts 243°
2026-04-15 18:31 10.24331 177.42213 31962 ft 475 kts 243°
2026-04-15 18:31 10.21498 177.37290 31958 ft 475 kts 243°
2026-04-15 18:32 10.18183 177.31532 31960 ft 475 kts 243°
2026-04-15 18:32 10.15052 177.26098 31962 ft 475 kts 243°
2026-04-15 18:33 10.11712 177.20304 31960 ft 476 kts 243°
2026-04-15 18:33 10.08408 177.14573 31961 ft 476 kts 243°
2026-04-15 18:34 10.05066 177.08779 31961 ft 476 kts 243°
2026-04-15 18:34 10.01722 177.02985 31958 ft 476 kts 243°
2026-04-15 18:35 9.98461 176.97136 31959 ft 475 kts 246°
2026-04-15 18:35 9.95486 176.91168 31958 ft 474 kts 247°
2026-04-15 18:36 9.92558 176.85168 31958 ft 474 kts 247°
2026-04-15 18:36 9.89908 176.79795 31960 ft 475 kts 247°
2026-04-15 18:37 9.86927 176.73808 31957 ft 475 kts 246°
2026-04-15 18:37 9.84482 176.68919 31955 ft 475 kts 246°
2026-04-15 18:38 9.81488 176.62936 31957 ft 476 kts 246°
2026-04-15 18:38 9.78770 176.57505 31957 ft 476 kts 247°
2026-04-15 18:39 9.75793 176.51557 31957 ft 476 kts 246°
2026-04-15 18:39 9.72791 176.45563 31953 ft 476 kts 246°
2026-04-15 18:40 9.69785 176.39564 31953 ft 477 kts 246°
2026-04-15 18:40 9.66777 176.33564 31952 ft 477 kts 246°
2026-04-15 18:41 9.63793 176.27614 31953 ft 476 kts 246°
2026-04-15 18:41 9.60787 176.21624 31954 ft 476 kts 246°
2026-04-15 18:42 9.57781 176.15638 31952 ft 476 kts 246°
2026-04-15 18:42 9.54774 176.09653 31953 ft 477 kts 246°
2026-04-15 18:43 9.51763 176.03661 31951 ft 477 kts 246°
2026-04-15 18:43 9.48750 175.97670 31954 ft 477 kts 246°
2026-04-15 18:44 9.45734 175.91675 31949 ft 477 kts 246°
2026-04-15 18:44 9.42736 175.85720 31951 ft 478 kts 246°
2026-04-15 18:45 9.39714 175.79720 31947 ft 478 kts 246°
2026-04-15 18:45 9.36693 175.73726 31950 ft 478 kts 246°
2026-04-15 18:46 9.33669 175.67727 31951 ft 478 kts 246°
2026-04-15 18:46 9.30641 175.61723 31947 ft 478 kts 246°
2026-04-15 18:47 9.27630 175.55758 31950 ft 478 kts 246°
2026-04-15 18:47 9.24598 175.49754 31950 ft 478 kts 246°
2026-04-15 18:48 9.22174 175.44954 31951 ft 478 kts 246°
2026-04-15 18:48 9.19141 175.38954 31947 ft 479 kts 245°
2026-04-15 18:49 9.16109 175.32958 31949 ft 479 kts 245°
2026-04-15 18:49 9.13073 175.26955 31945 ft 479 kts 245°
2026-04-15 18:50 9.10029 175.20941 31944 ft 479 kts 245°
2026-04-15 18:50 9.06991 175.14941 31947 ft 479 kts 245°
2026-04-15 18:51 9.03955 175.08949 31946 ft 479 kts 245°
2026-04-15 18:51 9.00931 175.02983 31943 ft 479 kts 245°
2026-04-15 18:52 8.97889 174.96984 31942 ft 479 kts 245°
2026-04-15 18:52 8.94848 174.90992 31945 ft 479 kts 245°
2026-04-15 18:53 8.91807 174.85000 31944 ft 479 kts 245°
2026-04-15 18:53 8.88760 174.79001 31943 ft 479 kts 245°
2026-04-15 18:54 8.85716 174.73009 31944 ft 479 kts 245°
2026-04-15 18:54 8.82668 174.67013 31942 ft 479 kts 245°
2026-04-15 18:55 8.79620 174.61021 31941 ft 480 kts 245°
2026-04-15 18:55 8.76567 174.55021 31944 ft 480 kts 245°
2026-04-15 18:56 8.73509 174.49014 31945 ft 480 kts 245°
2026-04-15 18:56 8.70450 174.43007 31942 ft 480 kts 245°
2026-04-15 18:57 8.67389 174.37001 31942 ft 481 kts 245°
2026-04-15 18:57 8.64339 174.31018 31945 ft 481 kts 245°
2026-04-15 18:58 8.61275 174.25011 31943 ft 482 kts 245°
2026-04-15 18:58 8.58310 174.19200 31938 ft 482 kts 245°
2026-04-15 18:59 8.55237 174.13181 31936 ft 482 kts 244°
2026-04-15 18:59 8.52158 174.07152 31941 ft 483 kts 244°
2026-04-15 19:00 8.49079 174.01126 31941 ft 483 kts 244°
2026-04-15 19:00 8.45992 173.95087 31938 ft 483 kts 244°
2026-04-15 19:01 8.42927 173.89094 31944 ft 483 kts 244°
2026-04-15 19:01 8.39841 173.83063 31944 ft 483 kts 244°
2026-04-15 19:02 8.36757 173.77039 31936 ft 483 kts 244°
2026-04-15 19:02 8.33665 173.71003 31940 ft 483 kts 244°
2026-04-15 19:03 8.30577 173.64976 31939 ft 483 kts 244°
2026-04-15 19:03 8.27493 173.58959 31939 ft 482 kts 244°
2026-04-15 19:04 8.24423 173.52973 31942 ft 482 kts 244°
2026-04-15 19:04 8.21334 173.46952 31940 ft 482 kts 244°
2026-04-15 19:05 8.18240 173.40925 31940 ft 482 kts 244°
2026-04-15 19:05 8.15155 173.34917 31944 ft 482 kts 244°
2026-04-15 19:06 8.12084 173.28938 31940 ft 482 kts 244°
2026-04-15 19:06 8.08992 173.22922 31942 ft 482 kts 244°
2026-04-15 19:07 8.05899 173.16908 31940 ft 482 kts 244°
2026-04-15 19:07 8.02810 173.10903 31941 ft 482 kts 244°
2026-04-15 19:08 7.99718 173.04896 31939 ft 482 kts 244°
2026-04-15 19:08 7.96628 172.98894 31940 ft 482 kts 244°
2026-04-15 19:09 7.93536 172.92891 31940 ft 482 kts 244°
2026-04-15 19:09 7.90466 172.86933 31941 ft 481 kts 244°
2026-04-15 19:10 7.87377 172.80941 31939 ft 481 kts 244°
2026-04-15 19:10 7.84462 172.75290 31937 ft 481 kts 244°
2026-04-15 19:10 7.82913 172.72287 31572 ft 486 kts 244°
2026-04-15 19:11 7.81351 172.69259 31115 ft 486 kts 244°
2026-04-15 19:11 7.79791 172.66236 30625 ft 485 kts 244°
2026-04-15 19:11 7.78221 172.63194 30031 ft 489 kts 244°
2026-04-15 19:11 7.76648 172.60148 29391 ft 490 kts 244°
2026-04-15 19:12 7.75073 172.57098 28747 ft 491 kts 244°
2026-04-15 19:12 7.73494 172.54042 28119 ft 491 kts 244°
2026-04-15 19:12 7.71912 172.50979 27502 ft 494 kts 243°
2026-04-15 19:12 7.70336 172.47928 26915 ft 499 kts 243°
2026-04-15 19:13 7.68730 172.44822 26326 ft 501 kts 243°
2026-04-15 19:13 7.67118 172.41704 25742 ft 501 kts 243°
2026-04-15 19:13 7.65503 172.38580 25172 ft 502 kts 243°
2026-04-15 19:13 7.63892 172.35464 24615 ft 500 kts 243°
2026-04-15 19:14 7.62283 172.32355 24065 ft 499 kts 242°
2026-04-15 19:14 7.60692 172.29281 23520 ft 492 kts 242°
2026-04-15 19:14 7.59112 172.26228 22883 ft 487 kts 242°
2026-04-15 19:14 7.57558 172.23225 22249 ft 480 kts 242°
2026-04-15 19:15 7.56027 172.20268 21636 ft 472 kts 242°
2026-04-15 19:15 7.54521 172.17361 21024 ft 465 kts 242°
2026-04-15 19:15 7.53032 172.14486 20440 ft 460 kts 242°
2026-04-15 19:15 7.51576 172.11676 19866 ft 456 kts 241°
2026-04-15 19:16 7.50117 172.08860 19289 ft 451 kts 241°
2026-04-15 19:16 7.48668 172.06063 18737 ft 448 kts 241°
2026-04-15 19:16 7.47229 172.03286 18182 ft 444 kts 241°
2026-04-15 19:16 7.45804 172.00538 17540 ft 441 kts 241°
2026-04-15 19:17 7.44388 171.97807 16924 ft 438 kts 241°
2026-04-15 19:17 7.42982 171.95096 16313 ft 434 kts 241°
2026-04-15 19:17 7.41594 171.92420 15723 ft 428 kts 241°
2026-04-15 19:17 7.40222 171.89775 15125 ft 423 kts 241°
2026-04-15 19:18 7.38866 171.87162 14547 ft 419 kts 241°
2026-04-15 19:18 7.37522 171.84571 13979 ft 415 kts 241°
2026-04-15 19:18 7.34906 171.79529 12980 ft 391 kts 241°
2026-04-15 19:19 7.33674 171.77155 12556 ft 374 kts 240°
2026-04-15 19:19 7.32494 171.74882 12467 ft 359 kts 240°
2026-04-15 19:19 7.31358 171.72694 12434 ft 347 kts 241°
2026-04-15 19:19 7.30386 171.70468 12441 ft 348 kts 248°
2026-04-15 19:20 7.29616 171.68168 12448 ft 353 kts 251°
2026-04-15 19:20 7.28893 171.65794 12439 ft 354 kts 251°
2026-04-15 19:20 7.28181 171.63424 12433 ft 353 kts 251°
2026-04-15 19:20 7.27461 171.61060 12431 ft 352 kts 251°
2026-04-15 19:21 7.26730 171.58702 12368 ft 352 kts 251°
2026-04-15 19:21 7.26108 171.56722 12072 ft 351 kts 250°
2026-04-15 19:21 7.25364 171.54378 11607 ft 350 kts 250°
2026-04-15 19:21 7.24628 171.52074 11142 ft 349 kts 250°
2026-04-15 19:22 7.23883 171.49751 10676 ft 349 kts 250°
2026-04-15 19:22 7.23136 171.47426 10217 ft 348 kts 250°
2026-04-15 19:22 7.22396 171.45124 9753 ft 341 kts 250°
2026-04-15 19:22 7.21674 171.42876 9233 ft 333 kts 250°
2026-04-15 19:23 7.20969 171.40685 8735 ft 325 kts 250°
2026-04-15 19:23 7.20279 171.38538 8232 ft 319 kts 250°
2026-04-15 19:23 7.19603 171.36438 7793 ft 312 kts 250°
2026-04-15 19:23 7.18940 171.34380 7352 ft 307 kts 250°
2026-04-15 19:24 7.18286 171.32350 6893 ft 303 kts 250°
2026-04-15 19:24 7.17641 171.30347 6453 ft 299 kts 250°
2026-04-15 19:24 7.17004 171.28370 5994 ft 295 kts 250°
2026-04-15 19:24 7.16373 171.26413 5527 ft 292 kts 250°
2026-04-15 19:25 7.15749 171.24477 5079 ft 289 kts 250°
2026-04-15 19:25 7.15131 171.22559 4625 ft 287 kts 250°
2026-04-15 19:25 7.14519 171.20659 4157 ft 284 kts 251°
2026-04-15 19:25 7.13910 171.18768 3698 ft 283 kts 251°
2026-04-15 19:26 7.13303 171.16886 3254 ft 281 kts 251°
2026-04-15 19:26 7.12711 171.15052 2833 ft 275 kts 251°
2026-04-15 19:26 7.12130 171.13249 2381 ft 267 kts 250°
2026-04-15 19:26 7.11562 171.11488 1926 ft 261 kts 251°
2026-04-15 19:27 7.10858 171.09873 1719 ft 243 kts 230°
2026-04-15 19:27 7.09631 171.08882 1691 ft 215 kts 201°
2026-04-15 19:27 7.08278 171.08503 1687 ft 191 kts 182°
2026-04-15 19:27 7.07036 171.08552 1678 ft 167 kts 163°
2026-04-15 19:28 7.05958 171.08825 1704 ft 156 kts 160°
2026-04-15 19:28 7.04943 171.09107 1731 ft 150 kts 160°
2026-04-15 19:28 7.04000 171.09370 1739 ft 150 kts 161°
2026-04-15 19:28 7.03109 171.09847 1685 ft 143 kts 124°
2026-04-15 19:29 7.02940 171.10775 1713 ft 135 kts 86°
2026-04-15 19:29 7.02986 171.11708 1708 ft 137 kts 86°
2026-04-15 19:29 7.03099 171.12670 1712 ft 138 kts 83°
2026-04-15 19:29 7.03246 171.13625 1706 ft 138 kts 81°
2026-04-15 19:30 7.03439 171.14577 1695 ft 139 kts 79°
2026-04-15 19:30 7.03653 171.15526 1709 ft 139 kts 78°
2026-04-15 19:30 7.03879 171.16483 1719 ft 142 kts 77°
2026-04-15 19:30 7.04112 171.17450 1691 ft 140 kts 77°
2026-04-15 19:31 7.04339 171.18379 1647 ft 137 kts 77°
2026-04-15 19:31 7.04563 171.19297 1470 ft 140 kts 77°
2026-04-15 19:31 7.04794 171.20238 1289 ft 137 kts 78°
2026-04-15 19:31 7.05021 171.21164 1105 ft 136 kts 77°
2026-04-15 19:32 7.05248 171.22090 931 ft 136 kts 77°
2026-04-15 19:32 7.05476 171.23014 729 ft 136 kts 78°
2026-04-15 19:32 7.05693 171.23904 544 ft 131 kts 77°
2026-04-15 19:32 7.05908 171.24789 393 ft 129 kts 75°
2026-04-15 19:33 7.06127 171.25669 197 ft 133 kts 77°
2026-04-15 19:33 7.06338 171.26539 15 ft 118 kts 78°
2026-04-15 19:33 7.06499 171.27188 15 ft 66 kts 77°
2026-04-15 19:33 7.06598 171.27594 14 ft 54 kts 76°
2026-04-15 19:34 7.06664 171.27865 17 ft 27 kts 76°
2026-04-15 19:34 7.06707 171.28036 14 ft 23 kts 76°
2026-04-15 19:34 7.06740 171.28094 15 ft 5 kts 25°
2026-04-15 19:34 7.06768 171.28093 18 ft 0 kts 340°
2026-04-15 19:35 7.06775 171.28088 17 ft 0 kts 315°
2026-04-15 19:35 7.06787 171.28064 16 ft 6 kts 306°
2026-04-15 19:35 7.06793 171.28052 16 ft 0 kts 295°